sat.trackr.live / text

‹ back to catalog

STARLINK-32393

NORAD 61862 · 2024-202T

PAYLOAD ACTIVE UNKNOWN

§ Identity

Operator
Country
US
Launch date
2024-11-07
Launch site
AFETR
Launch vehicle
Mass (kg)
RCS (m²)

Purposes: comms

External: N2YO · Heavens-Above · Gunter

§ Orbital elements

Epoch: 2026-05-25T00:57:15.410016Z

Period
94.27 min
Inclination
43.0016°
Eccentricity
0.0001465
Mean motion
15.27574673 rev/d
Perigee alt
482.1 km
Apogee alt
484.1 km
Semi-major
6,861.2 km
B*
2.5191e-5
RAAN
166.8701°
Arg perigee
291.7662°
Mean anomaly
68.3034°
Rev number
8,701

§ Raw data

STARLINK-323931 61862U 24202T   26145.03976169  .00000431  00000+0  25191-4 0  99912 61862  43.0016 166.8701 0001465 291.7662  68.3034 15.27574673 87014

JSON: /api/v1/satellites/61862 · /tle

For live sub-satellite position, see the globe view (requires WebGL).

§ Visibility from observer

Set your observer location to see the next 7 days of passes ≥ 10°. The values pass through the URL so the page stays shareable.

No JS? Fill the form by hand. The geolocation button needs JavaScript.